• In Uzbekistan
  • List of Countries
  • For 7 days
  • Water Temperature
  • Weather Map
  • Weather Widgets
  • user-avatar
    Login

    Hourly Weather Bregenz

    Today, 29 March, Sunday

    Time Temperature Precipitation Wind Pressure Humidity
    00:00 +1°C° 0 mm 1 mps 643 mmHg 91%
    01:00 +1°C° 0 mm 1 mps 643 mmHg 91%
    02:00 0°C° 0 mm 1 mps 643 mmHg 91%
    03:00 0°C° 0 mm 1 mps 643 mmHg 91%
    04:00 -1°C° 0 mm 0 mps 643 mmHg 92%
    05:00 -1°C° 0 mm 0 mps 643 mmHg 92%
    06:00 -1°C° 0 mm 0 mps 643 mmHg 92%
    07:00 0°C° 0 mm 0 mps 643 mmHg 92%
    08:00 +1°C° 0.3 mm 1 mps 643 mmHg 92%
    09:00 +2°C° 0.3 mm 1 mps 644 mmHg 92%
    10:00 +2°C° 0.3 mm 1 mps 644 mmHg 92%
    11:00 +1°C° 0.3 mm 2 mps 643 mmHg 93%
    12:00 +1°C° 0.3 mm 2 mps 643 mmHg 93%
    13:00 -1°C° 0.3 mm 2 mps 643 mmHg 94%
    14:00 -1°C° 0.6 mm 2 mps 643 mmHg 95%
    15:00 -2°C° 0.6 mm 2 mps 642 mmHg 97%
    16:00 -2°C° 0.6 mm 2 mps 642 mmHg 98%
    17:00 -3°C° 0.8 mm 2 mps 642 mmHg 98%
    18:00 -3°C° 0.8 mm 2 mps 642 mmHg 98%
    19:00 -4°C° 0.8 mm 2 mps 642 mmHg 98%
    20:00 -4°C° 1.1 mm 2 mps 643 mmHg 98%
    21:00 -4°C° 1.1 mm 2 mps 643 mmHg 98%
    22:00 -4°C° 1.1 mm 2 mps 643 mmHg 98%
    23:00 -6°C° 0.8 mm 3 mps 643 mmHg 98%

    Tomorrow, 30 March, Monday

    Time Temperature Precipitation Wind Pressure Humidity
    00:00 -6°C° 0.8 mm 3 mps 643 mmHg 97%
    01:00 -7°C° 0.8 mm 4 mps 643 mmHg 97%
    02:00 -6°C° 0.6 mm 3 mps 643 mmHg 96%
    03:00 -7°C° 0.6 mm 3 mps 643 mmHg 96%
    04:00 -7°C° 0.6 mm 3 mps 643 mmHg 95%
    05:00 -7°C° 0.3 mm 3 mps 643 mmHg 95%
    06:00 -8°C° 0.3 mm 3 mps 643 mmHg 94%
    07:00 -8°C° 0.3 mm 3 mps 643 mmHg 94%
    08:00 -7°C° 0.2 mm 3 mps 643 mmHg 92%
    09:00 -8°C° 0.2 mm 4 mps 643 mmHg 91%
    10:00 -7°C° 0.2 mm 4 mps 644 mmHg 89%
    11:00 -7°C° 0.3 mm 4 mps 644 mmHg 88%
    12:00 -5°C° 0.3 mm 4 mps 644 mmHg 87%
    13:00 -5°C° 0.3 mm 4 mps 643 mmHg 86%
    14:00 -5°C° 0.4 mm 4 mps 643 mmHg 86%
    15:00 -5°C° 0.4 mm 4 mps 643 mmHg 85%
    16:00 -5°C° 0.4 mm 4 mps 643 mmHg 85%
    17:00 -6°C° 0.2 mm 3 mps 643 mmHg 86%
    18:00 -7°C° 0.2 mm 3 mps 643 mmHg 87%
    19:00 -7°C° 0.2 mm 2 mps 643 mmHg 88%
    20:00 -8°C° 0 mm 2 mps 643 mmHg 88%
    21:00 -9°C° 0 mm 2 mps 643 mmHg 89%
    22:00 -10°C° 0 mm 2 mps 643 mmHg 90%
    23:00 -10°C° 0 mm 2 mps 643 mmHg 89%

    Day after tomorrow, 31 March, Tuesday

    Time Temperature Precipitation Wind Pressure Humidity
    00:00 -10°C° 0 mm 1 mps 643 mmHg 89%
    01:00 -10°C° 0 mm 1 mps 642 mmHg 89%
    02:00 -11°C° 0 mm 1 mps 642 mmHg 88%
    03:00 -11°C° 0 mm 1 mps 642 mmHg 87%
    04:00 -11°C° 0 mm 1 mps 642 mmHg 87%
    05:00 -11°C° 0 mm 1 mps 643 mmHg 85%
    06:00 -11°C° 0 mm 1 mps 643 mmHg 83%
    07:00 -10°C° 0 mm 1 mps 643 mmHg 82%
    08:00 -8°C° 0 mm 1 mps 644 mmHg 75%
    09:00 -7°C° 0 mm 2 mps 644 mmHg 68%
    10:00 -5°C° 0 mm 2 mps 645 mmHg 62%
    11:00 -4°C° 0 mm 2 mps 645 mmHg 62%
    12:00 -4°C° 0 mm 3 mps 645 mmHg 63%
    13:00 -2°C° 0 mm 3 mps 646 mmHg 63%
    14:00 -2°C° 0 mm 3 mps 646 mmHg 64%
    15:00 -2°C° 0 mm 3 mps 646 mmHg 65%
    16:00 -2°C° 0 mm 3 mps 646 mmHg 66%
    17:00 -5°C° 0 mm 3 mps 645 mmHg 71%
    18:00 -6°C° 0 mm 2 mps 645 mmHg 76%
    19:00 -7°C° 0 mm 1 mps 645 mmHg 81%
    20:00 -8°C° 0 mm 2 mps 645 mmHg 82%
    21:00 -9°C° 0 mm 2 mps 645 mmHg 83%
    22:00 -10°C° 0 mm 2 mps 645 mmHg 84%
    23:00 -10°C° 0 mm 2 mps 645 mmHg 84%

    1 April, Wednesday

    Time Temperature Precipitation Wind Pressure Humidity
    00:00 -10°C° 0 mm 2 mps 645 mmHg 83%
    01:00 -10°C° 0 mm 2 mps 645 mmHg 83%
    02:00 -10°C° 0 mm 2 mps 644 mmHg 81%
    03:00 -12°C° 0 mm 2 mps 644 mmHg 80%
    04:00 -10°C° 0 mm 1 mps 643 mmHg 78%
    05:00 -9°C° 0 mm 1 mps 643 mmHg 76%
    06:00 -9°C° 0 mm 1 mps 644 mmHg 74%
    07:00 -8°C° 0 mm 1 mps 644 mmHg 72%
    08:00 -6°C° 0 mm 1 mps 644 mmHg 68%
    09:00 -3°C° 0 mm 1 mps 644 mmHg 65%
    10:00 -1°C° 0 mm 1 mps 645 mmHg 61%
    11:00 0°C° 0 mm 1 mps 645 mmHg 62%
    12:00 +1°C° 0 mm 1 mps 645 mmHg 63%
    13:00 +3°C° 0 mm 1 mps 645 mmHg 63%
    14:00 +3°C° 0 mm 1 mps 644 mmHg 64%
    15:00 +3°C° 0 mm 1 mps 644 mmHg 64%
    16:00 +3°C° 0 mm 1 mps 644 mmHg 65%
    17:00 +1°C° 0 mm 1 mps 643 mmHg 70%
    18:00 -2°C° 0 mm 0 mps 643 mmHg 76%
    19:00 -4°C° 0 mm 0 mps 642 mmHg 81%
    20:00 -3°C° 0 mm 1 mps 642 mmHg 82%
    21:00 -4°C° 0 mm 1 mps 642 mmHg 84%
    22:00 -6°C° 0 mm 1 mps 642 mmHg 86%
    23:00 -6°C° 0 mm 1 mps 642 mmHg 86%

    2 April, Thursday

    Time Temperature Precipitation Wind Pressure Humidity
    00:00 -6°C° 0 mm 1 mps 642 mmHg 86%
    01:00 -6°C° 0 mm 1 mps 642 mmHg 87%
    02:00 -7°C° 0 mm 1 mps 641 mmHg 87%
    03:00 -7°C° 0 mm 1 mps 641 mmHg 87%
    04:00 -7°C° 0 mm 1 mps 641 mmHg 86%
    05:00 -6°C° 0 mm 1 mps 641 mmHg 84%
    06:00 -6°C° 0 mm 1 mps 641 mmHg 82%
    07:00 -4°C° 0 mm 1 mps 641 mmHg 80%
    08:00 -2°C° 0 mm 1 mps 642 mmHg 77%
    09:00 0°C° 0 mm 1 mps 642 mmHg 73%
    10:00 +2°C° 0 mm 1 mps 642 mmHg 69%
    11:00 +3°C° 0 mm 1 mps 642 mmHg 67%
    12:00 +4°C° 0 mm 1 mps 643 mmHg 65%
    13:00 +5°C° 0 mm 1 mps 643 mmHg 63%
    14:00 +5°C° 0 mm 1 mps 642 mmHg 62%
    15:00 +5°C° 0 mm 1 mps 642 mmHg 62%
    16:00 +5°C° 0 mm 1 mps 642 mmHg 62%
    17:00 +3°C° 0 mm 1 mps 642 mmHg 68%
    18:00 +1°C° 0 mm 1 mps 641 mmHg 75%
    19:00 -2°C° 0 mm 0 mps 641 mmHg 81%
    20:00 -3°C° 0 mm 0 mps 641 mmHg 83%
    21:00 -3°C° 0 mm 1 mps 641 mmHg 86%
    22:00 -3°C° 0 mm 1 mps 641 mmHg 88%
    23:00 -4°C° 0 mm 1 mps 641 mmHg 89%

    3 April, Friday

    Time Temperature Precipitation Wind Pressure Humidity
    00:00 -4°C° 0 mm 1 mps 641 mmHg 89%
    01:00 -4°C° 0 mm 1 mps 641 mmHg 90%
    02:00 -4°C° 0 mm 1 mps 640 mmHg 90%
    03:00 -6°C° 0 mm 1 mps 640 mmHg 90%
    04:00 -6°C° 0 mm 1 mps 639 mmHg 90%
    05:00 -4°C° 0 mm 1 mps 640 mmHg 88%
    06:00 -4°C° 0 mm 1 mps 640 mmHg 86%
    07:00 -3°C° 0 mm 1 mps 640 mmHg 84%
    08:00 -1°C° 0 mm 1 mps 640 mmHg 79%
    09:00 +1°C° 0 mm 1 mps 641 mmHg 73%
    10:00 +3°C° 0 mm 1 mps 641 mmHg 68%
    11:00 +4°C° 0 mm 1 mps 641 mmHg 66%
    12:00 +5°C° 0 mm 1 mps 641 mmHg 64%
    13:00 +6°C° 0 mm 1 mps 642 mmHg 61%
    14:00 +6°C° 0 mm 1 mps 641 mmHg 61%
    15:00 +5°C° 0 mm 1 mps 641 mmHg 61%
    16:00 +5°C° 0 mm 1 mps 641 mmHg 60%
    17:00 +3°C° 0 mm 1 mps 641 mmHg 67%
    18:00 +2°C° 0 mm 1 mps 640 mmHg 74%
    19:00 0°C° 0 mm 1 mps 640 mmHg 81%
    20:00 -1°C° 0 mm 1 mps 640 mmHg 83%
    21:00 -2°C° 0 mm 1 mps 641 mmHg 85%
    22:00 -3°C° 0 mm 0 mps 641 mmHg 87%
    23:00 -4°C° 0 mm 0 mps 641 mmHg 88%
    Show more